User: anonymous
Location: Caltech
(34.1382°N, 118.1253°W)
Time: 11:46:46
(UTC-07:00)
Language:

ADEOS II - Orbit

View from above orbital plane
View from above orbital plane
View from above satellite
View from above satellite

Ground track
Ground track

The orbit data is extracted from the following two-line orbital elements,

1 27597U 02056A   14244.93939656  .00000200  00000-0  99213-4 0  3824
2 27597 098.2768 248.7308 0002264 098.2232 319.1365 14.26846434610045
Epoch (UTC): 01 September 2014 22:32:43
Eccentricity: 0.0002264
inclination: 98.2768°
perigee height: 800 km
apogee height: 804 km
right ascension of ascending node: 248.7308°
argument of perigee: 98.2232°
revolutions per day: 14.26846434
mean anomaly at epoch: 319.1365°
orbit number at epoch: 61004

The dashed part of the orbit path shows where the satellite is in the earth's shadow,  

DLR